2000,9,1,0,5,-4.12,01,0.00,06,-0.23,01,-3.82,01,33.16,01,15.27,01
2000,9,1,0,10,-2.89,01,0.00,06,0.99,01,-2.44,01,33.77,01,14.91,01
2000,9,1,0,15,-1.61,01,0.00,06,1.69,01,-1.45,01,34.59,01,14.97,01
2000,9,1,0,20,-3.15,01,0.00,06,0.79,01,-2.77,01,34.29,01,15.60,01
2000,9,1,0,25,-3.86,01,0.00,06,0.76,01,-3.39,01,34.36,01,15.27,01
2000,9,1,0,30,-4.41,01,0.00,06,0.50,01,-4.17,01,34.48,01,15.29,01
2000,9,1,0,35,-4.53,01,0.00,06,0.45,01,-4.60,01,34.40,01,15.43,01
2000,9,1,0,40,-3.39,01,0.00,06,0.45,01,-3.68,01,34.00,01,14.71,01
2000,9,1,0,45,-3.15,01,0.00,06,0.28,01,-3.55,01,33.75,01,15.07,01
2000,9,1,0,50,-3.10,01,0.00,06,0.35,01,-3.49,01,33.71,01,15.13,01
2000,9,1,0,55,-4.24,01,0.00,06,-0.17,01,-4.32,01,33.57,01,15.22,01
2000,9,1,1,0,-5.36,01,0.00,06,-0.54,01,-5.05,01,33.33,01,15.26,01
2000,9,1,1,5,-6.51,01,0.00,06,-0.92,01,-5.92,01,33.14,01,15.33,01
2000,9,1,1,10,-6.14,01,0.00,06,-0.96,01,-5.28,01,32.99,01,15.47,01
2000,9,1,1,15,-6.04,01,0.00,06,-0.94,01,-5.16,01,33.01,01,15.35,01
2000,9,1,1,20,-6.17,01,0.00,06,-0.97,01,-5.50,01,32.88,01,15.44,01
2000,9,1,1,25,-5.40,01,0.00,06,-0.69,01,-4.98,01,32.83,01,15.47,01
2000,9,1,1,30,-5.04,01,0.00,06,-0.68,01,-4.59,01,32.72,01,15.46,01
2000,9,1,1,35,-5.05,01,0.00,06,-0.77,01,-4.60,01,32.60,01,15.15,01
2000,9,1,1,40,-4.67,01,0.00,06,-0.56,01,-4.44,01,32.46,01,15.49,01
2000,9,1,1,45,-3.58,01,0.00,06,-0.15,01,-3.39,01,32.78,01,15.36,01
2000,9,1,1,50,-3.64,01,0.00,06,-0.29,01,-3.36,01,32.69,01,15.41,01
2000,9,1,1,55,-3.97,01,0.00,06,-0.64,01,-3.60,01,32.41,01,15.59,01
2000,9,1,2,0,-4.20,01,0.00,06,-0.55,01,-3.72,01,32.26,01,16.30,01
2000,9,1,2,5,-3.52,01,0.00,06,0.06,01,-2.65,01,32.59,01,17.16,01
2000,9,1,2,10,-3.37,01,0.00,06,0.29,01,-2.40,01,32.55,01,18.36,01
2000,9,1,2,15,-3.48,01,0.00,06,0.13,01,-2.53,01,32.54,01,18.61,01
2000,9,1,2,20,-3.95,01,0.00,06,0.08,01,-3.31,01,32.44,01,17.93,01
2000,9,1,2,25,-4.00,01,0.00,06,0.03,01,-3.33,01,32.44,01,17.24,01
2000,9,1,2,30,-4.33,01,0.00,06,-0.07,01,-3.65,01,32.46,01,16.82,01
2000,9,1,2,35,-4.48,01,0.00,06,-0.04,01,-3.77,01,32.42,01,16.33,01
2000,9,1,2,40,-5.28,01,0.00,06,-0.32,01,-4.65,01,32.33,01,16.05,01
2000,9,1,2,45,-5.22,01,0.00,06,-0.40,01,-4.87,01,32.24,01,16.00,01
2000,9,1,2,50,-4.75,01,0.00,06,-0.48,01,-4.39,01,32.18,01,15.98,01
2000,9,1,2,55,-4.93,01,0.00,06,-0.54,01,-4.51,01,31.93,01,16.17,01
2000,9,1,3,0,-4.37,01,0.00,06,-0.66,01,-3.75,01,31.72,01,16.90,01
2000,9,1,3,5,-4.25,01,0.00,06,-0.85,01,-3.31,01,31.44,01,17.93,01
2000,9,1,3,10,-3.44,01,0.00,06,-0.40,01,-2.37,01,31.40,01,18.72,01
2000,9,1,3,15,-2.58,01,0.00,06,0.22,01,-1.91,01,31.54,01,19.11,01
2000,9,1,3,20,-2.89,01,0.00,06,0.19,01,-2.12,01,31.61,01,19.36,01
2000,9,1,3,25,-3.63,01,0.00,06,0.06,01,-2.68,01,31.58,01,19.70,01
2000,9,1,3,30,-3.60,01,0.00,06,0.16,01,-2.71,01,31.56,01,20.04,01
2000,9,1,3,35,-3.87,01,0.00,06,0.22,01,-2.88,01,31.67,01,19.27,01
2000,9,1,3,40,-4.30,01,0.00,06,0.09,01,-3.59,01,31.75,01,18.92,01
2000,9,1,3,45,-4.18,01,0.00,06,0.23,01,-3.52,01,31.82,01,18.85,01
2000,9,1,3,50,-3.64,01,0.00,06,0.56,01,-3.20,01,31.99,01,18.66,01
2000,9,1,3,55,-3.48,01,0.00,06,0.63,01,-2.74,01,32.03,01,19.31,01
2000,9,1,4,0,-1.88,01,0.00,06,1.84,01,-1.06,01,32.47,01,18.58,01
2000,9,1,4,5,-1.79,01,0.00,06,1.76,01,-1.04,01,32.76,01,18.48,01
2000,9,1,4,10,-2.81,01,0.00,06,0.86,01,-2.22,01,32.56,01,18.93,01
2000,9,1,4,15,-3.93,01,0.00,06,-0.08,01,-3.33,01,32.31,01,19.41,01
2000,9,1,4,20,-4.34,01,0.00,06,-0.47,01,-3.84,01,32.14,01,19.96,01
2000,9,1,4,25,-4.63,01,0.00,06,-0.86,01,-4.13,01,31.93,01,21.04,01
2000,9,1,4,30,-5.09,01,0.00,06,-1.66,01,-4.56,01,31.41,01,22.51,01
2000,9,1,4,35,-5.24,01,0.00,06,-1.52,01,-4.67,01,31.20,01,22.08,01
2000,9,1,4,40,-4.95,01,0.00,06,-0.86,01,-4.26,01,31.29,01,20.92,01
2000,9,1,4,45,-4.20,01,0.00,06,0.02,01,-3.51,01,31.63,01,20.46,01
2000,9,1,4,50,-4.46,01,0.00,06,-0.08,01,-3.65,01,31.67,01,20.97,01
2000,9,1,4,55,-5.14,01,0.00,06,-0.60,01,-4.34,01,31.44,01,21.62,01
2000,9,1,5,0,-5.25,01,0.00,06,-0.55,01,-4.48,01,31.35,01,21.82,01
2000,9,1,5,5,-5.21,01,0.00,06,-0.46,01,-4.31,01,31.43,01,21.43,01
2000,9,1,5,10,-5.66,01,0.00,06,-0.81,01,-4.83,01,31.31,01,22.06,01
2000,9,1,5,15,-6.93,01,0.00,06,-1.79,01,-6.26,01,30.65,01,23.33,01
2000,9,1,5,20,-7.46,01,0.00,06,-3.08,01,-6.97,01,29.80,01,23.74,01
2000,9,1,5,25,-5.93,01,0.00,06,-2.07,01,-5.68,01,29.50,01,24.52,01
2000,9,1,5,30,-3.91,01,0.00,06,-0.12,01,-4.00,01,29.94,01,23.81,01
2000,9,1,5,35,-3.88,01,0.00,06,-0.02,01,-3.78,01,30.19,01,22.97,01
2000,9,1,5,40,-4.46,01,0.00,06,-0.94,01,-4.28,01,29.97,01,23.29,01
2000,9,1,5,45,-3.55,01,0.00,06,-1.40,01,-3.09,01,29.55,01,22.92,01
2000,9,1,5,50,-0.82,01,-0.21,06,-1.48,01,-0.19,01,29.37,01,22.73,01
2000,9,1,5,55,4.71,01,5.13,06,-1.06,01,5.16,01,29.49,01,22.86,01
2000,9,1,6,0,12.20,01,12.77,06,-0.29,01,12.78,01,29.47,01,24.71,01
2000,9,1,6,5,21.74,01,22.64,06,2.41,01,22.48,01,30.12,01,24.38,01
2000,9,1,6,10,29.57,01,30.36,06,1.37,01,30.24,01,30.01,01,25.27,01
2000,9,1,6,15,41.59,01,41.81,06,0.80,01,41.72,01,29.72,01,26.04,01
2000,9,1,6,20,56.95,01,56.62,06,3.23,01,56.21,01,29.64,01,26.46,01
2000,9,1,6,25,76.00,01,75.23,06,13.77,01,73.20,01,29.38,01,27.74,01
2000,9,1,6,30,98.17,01,97.58,06,58.50,01,87.80,01,29.10,01,28.56,01
2000,9,1,6,35,120.66,03,119.96,06,81.60,03,104.70,03,28.98,01,29.50,01
2000,9,1,6,40,145.78,03,144.64,06,95.90,03,124.80,03,28.96,01,30.38,01
2000,9,1,6,45,169.28,09,168.16,06,117.20,09,141.60,09,29.08,01,30.05,01
2000,9,1,6,50,191.74,09,190.60,06,130.30,09,158.50,09,29.27,01,29.94,01
2000,9,1,6,55,219.68,09,218.04,06,155.80,09,176.60,09,29.52,01,29.26,01
2000,9,1,7,0,244.59,45,242.93,06,168.20,44,194.90,08,30.11,01,27.36,01
2000,9,1,7,5,267.23,49,265.95,06,188.70,48,208.40,08,30.70,01,26.52,01
2000,9,1,7,10,288.04,09,287.04,06,221.20,09,215.30,09,30.97,01,26.20,01
2000,9,1,7,15,304.19,09,303.79,06,237.50,09,222.20,09,31.43,01,25.35,01
2000,9,1,7,20,317.86,09,317.73,06,257.10,09,224.50,09,31.81,01,24.74,01
2000,9,1,7,25,332.83,09,332.50,06,268.90,09,229.90,09,32.26,01,23.76,01
2000,9,1,7,30,342.98,09,342.39,06,274.00,09,232.70,09,32.59,01,22.91,01
2000,9,1,7,35,371.13,03,369.71,06,312.70,03,238.70,03,32.93,01,22.05,01
2000,9,1,7,40,351.18,03,350.85,06,267.60,03,233.80,03,33.37,01,21.17,01
2000,9,1,7,45,353.76,03,352.59,06,258.50,03,234.80,03,33.64,01,20.42,01
2000,9,1,7,50,391.74,03,391.29,06,308.80,03,245.00,03,33.86,01,20.04,01
2000,9,1,7,55,336.95,03,335.97,06,182.40,03,246.30,03,34.19,01,19.21,01
2000,9,1,8,0,363.83,03,362.26,06,184.70,03,268.20,03,34.48,01,18.76,01
2000,9,1,8,5,489.84,03,486.66,06,352.50,03,301.00,03,34.77,01,18.52,01
2000,9,1,8,10,487.66,03,485.70,06,312.90,03,315.50,03,35.12,01,18.13,01
2000,9,1,8,15,408.41,03,405.65,06,176.40,03,306.70,03,35.41,01,17.82,01
2000,9,1,8,20,516.41,03,513.06,06,351.00,03,310.30,03,35.71,01,17.34,01
2000,9,1,8,25,483.98,03,480.86,06,303.90,03,300.30,03,36.01,01,16.84,01
2000,9,1,8,30,466.55,03,463.00,06,279.00,03,292.70,03,36.07,01,16.62,01
2000,9,1,8,35,562.49,03,557.89,06,415.40,03,297.70,03,36.32,01,16.18,01
2000,9,1,8,40,478.79,03,475.98,06,279.70,03,296.40,03,36.68,01,16.07,01
2000,9,1,8,45,556.40,03,551.16,06,377.60,03,302.90,03,36.71,01,15.65,01
2000,9,1,8,50,626.06,03,620.44,06,462.00,03,309.70,03,36.67,01,14.97,01
2000,9,1,8,55,637.63,03,632.45,06,482.60,03,300.70,03,36.86,01,15.19,01
2000,9,1,9,0,644.05,03,639.46,06,493.00,03,293.40,03,37.06,01,14.34,01
2000,9,1,9,5,663.76,03,658.55,06,512.10,03,291.80,03,37.07,01,14.32,01
2000,9,1,9,10,682.31,03,675.81,06,521.60,03,295.00,03,37.23,01,14.03,01
2000,9,1,9,15,680.77,03,673.94,06,509.30,03,295.20,03,37.54,01,14.26,01
2000,9,1,9,20,702.17,03,691.53,06,518.60,03,299.00,03,37.70,01,13.35,01
2000,9,1,9,25,577.81,03,567.61,06,350.10,03,298.10,03,37.72,01,13.48,01
2000,9,1,9,30,631.26,03,622.63,06,407.90,03,303.50,03,37.94,01,13.13,01
2000,9,1,9,35,738.78,03,732.12,06,538.40,03,304.30,03,38.30,01,12.22,01
2000,9,1,9,40,759.27,03,752.01,06,563.70,03,297.40,03,38.50,01,11.65,01
2000,9,1,9,45,780.75,03,773.39,06,587.90,03,292.50,03,38.68,01,11.58,01
2000,9,1,9,50,786.26,03,779.75,06,589.60,03,290.90,03,38.97,01,11.44,01
2000,9,1,9,55,803.72,03,797.96,06,601.70,03,292.60,03,39.08,01,11.11,01
2000,9,1,10,0,811.20,03,805.38,06,602.60,03,293.00,03,39.32,01,10.82,01
2000,9,1,10,5,824.74,03,820.42,06,611.20,03,294.60,03,39.19,01,10.97,01
2000,9,1,10,10,827.36,03,824.51,06,610.40,03,293.50,03,39.30,01,11.04,01
2000,9,1,10,15,836.94,03,834.29,06,614.20,03,294.30,03,39.56,01,10.93,01
2000,9,1,10,20,851.49,03,848.73,06,625.70,03,293.10,03,39.43,01,10.79,01
2000,9,1,10,25,869.99,03,866.55,06,639.80,03,293.00,03,39.57,01,10.68,01
2000,9,1,10,30,875.58,03,870.71,06,642.80,03,289.30,03,39.75,01,10.59,01
2000,9,1,10,35,884.15,03,878.02,06,647.40,03,287.50,03,39.81,01,10.43,01
2000,9,1,10,40,892.71,03,885.18,06,650.00,03,287.60,03,39.87,01,10.49,01
2000,9,1,10,45,908.30,03,901.92,06,662.00,03,288.80,03,40.31,01,10.23,01
2000,9,1,10,50,917.10,03,910.06,06,667.90,03,287.20,03,40.51,01,10.11,01
2000,9,1,10,55,917.97,03,912.54,06,669.70,03,284.00,03,40.81,01,10.05,01
2000,9,1,11,0,919.84,03,913.35,06,664.50,03,286.00,03,40.92,01,10.12,01
2000,9,1,11,5,923.70,03,912.84,06,656.90,03,289.30,03,40.67,01,10.22,01
2000,9,1,11,10,919.62,03,904.45,06,639.00,03,294.90,03,40.76,01,10.15,01
2000,9,1,11,15,923.49,03,908.93,06,635.30,03,300.20,03,40.85,01,10.06,01
2000,9,1,11,20,907.54,03,892.14,06,612.10,03,303.30,03,40.71,01,10.10,01
2000,9,1,11,25,921.32,03,909.13,06,623.60,03,307.10,03,40.61,01,10.26,01
2000,9,1,11,30,908.36,03,896.84,06,609.00,03,307.10,03,41.15,01,9.99,01
2000,9,1,11,35,913.24,03,901.35,06,609.80,03,309.30,03,41.09,01,9.94,01
2000,9,1,11,40,934.00,03,922.27,06,630.30,03,309.00,03,41.11,01,9.93,01
2000,9,1,11,45,942.91,03,937.23,06,649.20,03,304.50,03,41.89,01,9.69,01
2000,9,1,11,50,939.94,03,933.69,06,646.00,03,303.30,03,42.28,01,9.57,01
2000,9,1,11,55,934.99,03,928.20,06,641.00,03,302.20,03,42.34,01,9.58,01
2000,9,1,12,0,941.92,03,928.05,06,634.80,03,307.90,03,41.98,01,9.71,01
2000,9,1,12,5,939.94,03,924.65,06,627.60,03,311.60,03,41.76,01,9.80,01
2000,9,1,12,10,916.17,03,899.66,06,599.50,03,314.40,03,42.05,01,9.76,01
2000,9,1,12,15,917.16,03,902.33,06,596.70,03,320.40,03,42.04,01,9.72,01
2000,9,1,12,20,923.10,03,910.38,06,604.30,03,321.90,03,41.91,01,9.84,01
2000,9,1,12,25,931.04,03,919.23,06,615.30,03,321.20,03,41.96,01,9.78,01
2000,9,1,12,30,920.21,03,912.36,06,613.60,03,317.40,03,42.27,01,9.69,01
2000,9,1,12,35,905.43,03,899.71,06,606.40,03,313.40,03,42.50,01,9.61,01
2000,9,1,12,40,926.32,03,917.93,06,623.90,03,316.70,03,42.51,01,9.64,01
2000,9,1,12,45,895.70,03,884.61,06,597.80,03,310.70,03,42.43,01,9.70,01
2000,9,1,12,50,872.24,03,859.43,06,578.60,03,306.30,03,42.69,01,9.62,01
2000,9,1,12,55,885.98,03,846.71,06,570.70,03,303.70,03,42.98,01,9.55,01
2000,9,1,13,0,912.85,19,855.01,06,579.90,18,306.10,18,43.17,01,9.48,01
2000,9,1,13,5,897.10,19,838.89,06,570.00,18,302.40,18,42.98,01,9.54,01
2000,9,1,13,10,903.17,23,835.20,06,567.00,22,304.80,22,42.80,01,9.61,01
2000,9,1,13,15,880.48,23,807.94,06,543.50,22,302.90,22,43.14,01,9.51,01
2000,9,1,13,20,817.64,19,747.26,06,492.90,18,292.50,18,42.96,01,9.61,01
2000,9,1,13,25,856.20,19,788.19,06,539.20,18,294.50,18,42.87,01,9.62,01
2000,9,1,13,30,845.65,19,777.42,06,535.50,18,291.10,18,43.33,01,9.55,01
2000,9,1,13,35,851.94,23,776.17,06,540.90,22,289.20,22,43.08,01,9.68,01
2000,9,1,13,40,840.39,23,763.07,06,532.90,22,287.70,22,43.41,01,9.70,01
2000,9,1,13,45,822.88,23,749.37,06,526.80,22,284.00,22,43.97,01,9.48,01
2000,9,1,13,50,826.20,23,752.99,06,534.80,22,285.40,22,43.96,01,9.49,01
2000,9,1,13,55,788.91,27,711.87,06,498.30,26,280.90,26,43.62,01,9.63,01
2000,9,1,14,0,774.35,27,694.64,06,486.80,26,278.40,26,43.71,01,9.63,01
2000,9,1,14,5,777.68,27,695.56,06,493.30,26,278.80,26,43.94,01,9.70,01
2000,9,1,14,10,764.21,27,685.56,06,489.50,26,277.20,26,44.17,01,9.61,01
2000,9,1,14,15,765.60,27,686.87,06,494.10,26,280.10,26,44.25,01,9.53,01
2000,9,1,14,20,739.18,27,659.92,06,471.50,26,277.10,26,43.89,01,9.68,01
2000,9,1,14,25,733.61,31,650.70,06,470.00,30,274.60,30,43.65,01,9.83,01
2000,9,1,14,30,730.04,27,650.77,06,474.10,26,277.10,26,43.88,01,9.80,01
2000,9,1,14,35,722.47,27,646.65,06,480.50,26,273.90,26,44.03,01,9.81,01
2000,9,1,14,40,685.72,23,614.41,06,454.80,22,267.40,22,44.26,01,9.72,01
2000,9,1,14,45,676.27,31,601.58,06,448.70,30,265.10,30,44.15,01,9.74,01
2000,9,1,14,50,669.86,27,593.18,06,450.10,26,261.70,26,44.33,01,9.74,01
2000,9,1,14,55,645.05,31,570.81,06,433.10,30,257.80,30,44.18,01,9.75,01
2000,9,1,15,0,623.79,27,553.90,06,420.10,26,256.20,26,44.33,01,9.83,01
2000,9,1,15,5,616.51,27,548.57,06,422.00,26,255.60,26,44.31,01,9.71,01
2000,9,1,15,10,605.09,27,537.97,06,414.20,26,256.50,26,44.83,01,9.58,01
2000,9,1,15,15,589.80,27,523.50,06,393.50,26,262.00,26,44.46,01,9.77,01
2000,9,1,15,20,576.82,27,513.72,06,378.00,26,268.30,26,44.36,01,9.78,01
2000,9,1,15,25,571.66,27,512.16,06,380.40,26,271.10,26,44.68,01,9.59,01
2000,9,1,15,30,558.97,27,503.11,06,373.90,26,272.10,26,45.18,01,9.34,01
2000,9,1,15,35,550.97,23,493.74,06,361.20,22,276.40,22,45.16,01,9.53,01
2000,9,1,15,40,535.48,27,477.30,06,352.10,26,271.20,26,44.91,01,9.62,01
2000,9,1,15,45,527.27,27,470.98,06,351.30,26,271.20,26,44.51,01,9.67,01
2000,9,1,15,50,522.16,23,470.66,06,333.20,22,286.80,22,44.38,01,9.74,01
2000,9,1,15,55,514.90,27,466.28,06,322.20,26,294.00,26,44.63,01,9.29,01
2000,9,1,16,0,509.54,23,458.99,06,316.60,22,295.20,22,44.64,01,9.07,01
2000,9,1,16,5,492.62,27,441.67,06,310.30,26,286.60,26,44.97,01,8.96,01
2000,9,1,16,10,458.18,27,412.13,06,292.60,26,271.10,26,45.03,01,8.80,01
2000,9,1,16,15,417.45,27,376.09,06,258.60,26,256.10,26,44.60,01,8.92,01
2000,9,1,16,20,409.91,23,367.04,06,277.80,22,243.20,22,44.73,01,8.92,01
2000,9,1,16,25,378.16,27,337.98,06,264.10,26,225.10,26,45.01,01,8.80,01
2000,9,1,16,30,345.25,23,308.06,06,250.10,22,205.80,22,44.56,01,8.96,01
2000,9,1,16,35,318.76,23,285.12,06,247.90,22,188.40,22,44.35,01,9.05,01
2000,9,1,16,40,281.56,19,254.00,06,231.10,18,168.20,18,44.24,01,9.11,01
2000,9,1,16,45,255.18,19,230.11,06,213.80,18,154.80,18,44.28,01,9.04,01
2000,9,1,16,50,222.74,15,202.09,06,172.00,14,144.80,14,44.17,01,9.23,01
2000,9,1,16,55,212.59,15,192.93,06,182.70,14,135.60,14,44.08,01,9.19,01
2000,9,1,17,0,192.24,11,175.53,06,171.30,10,125.10,10,43.98,01,9.21,01
2000,9,1,17,5,172.45,11,158.50,06,156.10,10,115.60,10,44.03,01,9.19,01
2000,9,1,17,10,152.48,11,140.32,06,137.20,10,105.30,10,43.90,01,9.13,01
2000,9,1,17,15,132.56,03,122.33,06,117.30,03,94.70,03,43.67,01,9.23,01
2000,9,1,17,20,115.23,11,107.11,06,98.30,10,85.90,10,43.59,01,9.32,01
2000,9,1,17,25,99.49,03,93.22,06,78.70,03,77.80,03,43.51,01,9.34,01
2000,9,1,17,30,85.89,03,81.07,06,64.48,03,69.72,03,43.47,01,9.34,01
2000,9,1,17,35,71.80,01,68.48,06,47.28,01,61.10,01,43.32,01,9.36,01
2000,9,1,17,40,56.35,01,54.52,06,14.91,01,52.49,01,43.27,01,9.37,01
2000,9,1,17,45,46.07,01,45.00,06,3.03,01,44.65,01,43.11,01,9.52,01
2000,9,1,17,50,38.55,01,38.50,06,11.67,01,37.37,01,42.99,01,9.60,01
2000,9,1,17,55,30.23,01,30.08,06,2.25,01,29.91,01,42.91,01,9.65,01
2000,9,1,18,0,22.28,01,22.35,06,-1.07,01,22.41,01,42.78,01,9.61,01
2000,9,1,18,5,13.43,01,13.78,06,-1.62,01,13.84,01,42.63,01,9.79,01
2000,9,1,18,10,5.18,01,5.82,06,-1.88,01,5.86,01,42.37,01,9.97,01
2000,9,1,18,15,-0.81,01,0.07,06,-1.66,01,0.07,01,42.28,01,10.01,01
2000,9,1,18,20,-4.14,01,0.00,06,-1.75,01,-3.23,01,42.06,01,10.06,01
2000,9,1,18,25,-5.89,01,0.00,06,-1.81,01,-4.67,01,41.81,01,10.22,01
2000,9,1,18,30,-6.39,01,0.00,06,-1.63,01,-5.12,01,41.64,01,10.33,01
2000,9,1,18,35,-6.56,01,0.00,06,-1.49,01,-5.39,01,41.48,01,10.43,01
2000,9,1,18,40,-6.78,01,0.00,06,-1.38,01,-5.59,01,41.36,01,10.48,01
2000,9,1,18,45,-7.22,01,0.00,06,-1.63,01,-6.05,01,41.10,01,10.56,01
2000,9,1,18,50,-7.06,01,0.00,06,-1.49,01,-5.95,01,40.92,01,10.62,01
2000,9,1,18,55,-7.48,01,0.00,06,-1.68,01,-6.28,01,40.65,01,10.68,01
2000,9,1,19,0,-7.69,01,0.00,06,-1.68,01,-6.37,01,40.46,01,10.76,01
2000,9,1,19,5,-7.81,01,0.00,06,-1.75,01,-6.54,01,40.23,01,10.80,01
2000,9,1,19,10,-7.82,01,0.00,06,-1.73,01,-6.57,01,40.01,01,10.91,01
2000,9,1,19,15,-7.15,01,0.00,06,-1.37,01,-6.22,01,39.97,01,10.93,01
2000,9,1,19,20,-6.84,01,0.00,06,-1.12,01,-6.03,01,39.92,01,10.97,01
2000,9,1,19,25,-6.61,01,0.00,06,-1.07,01,-5.55,01,39.88,01,10.93,01
2000,9,1,19,30,-7.46,01,0.00,06,-1.71,01,-6.36,01,39.44,01,11.08,01
2000,9,1,19,35,-7.25,01,0.00,06,-1.74,01,-6.11,01,39.20,01,11.17,01
2000,9,1,19,40,-6.96,01,0.00,06,-1.72,01,-5.99,01,38.99,01,11.19,01
2000,9,1,19,45,-7.40,01,0.00,06,-2.00,01,-6.57,01,38.55,01,11.31,01
2000,9,1,19,50,-6.86,01,0.00,06,-1.26,01,-6.29,01,38.54,01,11.36,01
2000,9,1,19,55,-6.53,01,0.00,06,-0.98,01,-6.01,01,38.57,01,11.30,01
2000,9,1,20,0,-6.83,01,0.00,06,-1.14,01,-5.99,01,38.36,01,11.32,01
2000,9,1,20,5,-6.24,01,0.00,06,-0.27,01,-5.53,01,38.41,01,11.37,01
2000,9,1,20,10,-5.84,01,0.00,06,-0.53,01,-5.22,01,38.44,01,11.30,01
2000,9,1,20,15,-6.11,01,0.00,06,-0.34,01,-5.47,01,38.23,01,11.48,01
2000,9,1,20,20,-5.34,01,0.00,06,0.27,01,-4.84,01,38.25,01,11.57,01
2000,9,1,20,25,-4.69,01,0.00,06,0.74,01,-4.30,01,38.45,01,11.50,01
2000,9,1,20,30,-4.57,01,0.00,06,0.80,01,-4.32,01,38.64,01,11.39,01
2000,9,1,20,35,-6.97,01,0.00,06,-0.68,01,-6.25,01,38.31,01,11.35,01
2000,9,1,20,40,-8.27,01,0.00,06,-0.85,01,-7.63,01,37.84,01,11.69,01
2000,9,1,20,45,-8.81,01,0.00,06,-1.65,01,-8.32,01,37.58,01,11.64,01
2000,9,1,20,50,-9.02,01,0.00,06,-1.95,01,-8.45,01,37.26,01,11.95,01
2000,9,1,20,55,-8.33,01,0.00,06,-2.02,01,-7.48,01,37.12,01,12.55,01
2000,9,1,21,0,-8.38,01,0.00,06,-2.03,01,-7.29,01,37.00,01,12.89,01
2000,9,1,21,5,-7.58,01,0.00,06,-1.49,01,-6.50,01,36.97,01,13.34,01
2000,9,1,21,10,-6.04,01,0.00,06,-0.44,01,-5.21,01,37.10,01,12.77,01
2000,9,1,21,15,-6.36,01,0.00,06,-0.66,01,-5.40,01,36.89,01,12.96,01
2000,9,1,21,20,-7.72,01,0.00,06,-1.09,01,-6.32,01,36.44,01,13.12,01
2000,9,1,21,25,-7.31,01,0.00,06,-0.74,01,-6.41,01,36.38,01,13.28,01
2000,9,1,21,30,-7.63,01,0.00,06,-0.81,01,-6.62,01,36.45,01,13.45,01
2000,9,1,21,35,-7.31,01,0.00,06,-0.83,01,-6.24,01,36.33,01,13.47,01
2000,9,1,21,40,-7.29,01,0.00,06,-1.40,01,-6.33,01,36.00,01,13.40,01
2000,9,1,21,45,-7.99,01,0.00,06,-1.84,01,-7.09,01,35.25,01,12.62,01
2000,9,1,21,50,-8.33,01,0.00,06,-2.00,01,-7.14,01,34.76,01,12.53,01
2000,9,1,21,55,-7.35,01,0.00,06,-1.86,01,-6.04,01,34.59,01,13.16,01
2000,9,1,22,0,-6.01,01,0.00,06,-1.31,01,-4.67,01,34.69,01,14.36,01
2000,9,1,22,5,-4.52,01,0.00,06,-0.08,01,-3.41,01,35.02,01,14.38,01
2000,9,1,22,10,-4.33,01,0.00,06,0.56,01,-3.63,01,35.19,01,14.10,01
2000,9,1,22,15,-4.20,01,0.00,06,0.83,01,-3.51,01,35.19,01,14.14,01
2000,9,1,22,20,-3.25,01,0.00,06,1.81,01,-2.59,01,35.84,01,13.73,01
2000,9,1,22,25,-3.39,01,0.00,06,1.57,01,-2.25,01,36.07,01,13.82,01
2000,9,1,22,30,-3.81,01,0.00,06,1.31,01,-2.46,01,35.85,01,13.86,01
2000,9,1,22,35,-3.02,01,0.00,06,1.63,01,-2.09,01,36.14,01,13.59,01
2000,9,1,22,40,-3.37,01,0.00,06,1.37,01,-2.66,01,36.13,01,13.64,01
2000,9,1,22,45,-4.16,01,0.00,06,0.13,01,-3.48,01,35.35,01,14.27,01
2000,9,1,22,50,-4.00,01,0.00,06,0.01,01,-3.30,01,35.13,01,14.74,01
2000,9,1,22,55,-4.03,01,0.00,06,0.46,01,-3.33,01,35.32,01,14.21,01
2000,9,1,23,0,-4.66,01,0.00,06,0.28,01,-3.86,01,35.25,01,14.05,01
2000,9,1,23,5,-4.62,01,0.00,06,0.45,01,-3.97,01,35.25,01,13.80,01
2000,9,1,23,10,-4.01,01,0.00,06,1.19,01,-3.18,01,35.61,01,13.60,01
2000,9,1,23,15,-3.71,01,0.00,06,1.54,01,-2.62,01,35.96,01,13.58,01
2000,9,1,23,20,-4.33,01,0.00,06,1.17,01,-3.46,01,35.82,01,13.66,01
2000,9,1,23,25,-5.07,01,0.00,06,0.64,01,-4.19,01,35.70,01,13.60,01
2000,9,1,23,30,-4.54,01,0.00,06,1.02,01,-3.78,01,36.02,01,13.40,01
2000,9,1,23,35,-6.35,01,0.00,06,0.18,01,-4.96,01,35.73,01,13.55,01
2000,9,1,23,40,-6.18,01,0.00,06,0.00,01,-5.06,01,35.60,01,13.59,01
2000,9,1,23,45,-6.12,01,0.00,06,-0.25,01,-5.01,01,35.49,01,13.57,01
2000,9,1,23,50,-6.99,01,0.00,06,-0.59,01,-6.06,01,35.13,01,13.83,01
2000,9,1,23,55,-5.66,01,0.00,06,-0.56,01,-5.04,01,34.91,01,14.46,01
2000,9,2,0,0,-5.78,01,0.00,06,-1.45,01,-5.03,01,34.11,01,14.57,01
2000,9,2,0,5,-5.93,01,0.00,06,-1.66,01,-5.22,01,33.72,01,14.50,01
2000,9,2,0,10,-6.17,01,0.00,06,-1.69,01,-5.39,01,33.34,01,14.58,01
2000,9,2,0,15,-5.51,01,0.00,06,-1.14,01,-4.96,01,33.25,01,14.68,01
2000,9,2,0,20,-4.80,01,0.00,06,-0.24,01,-4.35,01,33.46,01,14.54,01
2000,9,2,0,25,-5.36,01,0.00,06,-0.25,01,-4.48,01,33.49,01,14.44,01
2000,9,2,0,30,-5.50,01,0.00,06,-0.23,01,-4.73,01,33.36,01,14.47,01
2000,9,2,0,35,-5.27,01,0.00,06,-0.23,01,-4.41,01,33.43,01,14.52,01
2000,9,2,0,40,-5.02,01,0.00,06,-0.03,01,-4.33,01,33.63,01,14.38,01
2000,9,2,0,45,-5.18,01,0.00,06,-0.02,01,-4.38,01,33.51,01,14.34,01
2000,9,2,0,50,-5.46,01,0.00,06,-0.12,01,-4.61,01,33.24,01,14.52,01
2000,9,2,0,55,-4.86,01,0.00,06,0.27,01,-4.07,01,33.47,01,14.43,01
2000,9,2,1,0,-6.23,01,0.00,06,-0.36,01,-5.24,01,33.27,01,14.57,01
2000,9,2,1,5,-6.81,01,0.00,06,-0.13,01,-6.07,01,33.17,01,14.67,01
2000,9,2,1,10,-5.02,01,0.00,06,0.60,01,-4.18,01,33.36,01,14.37,01
2000,9,2,1,15,-4.06,01,0.00,06,0.96,01,-3.33,01,33.18,01,14.57,01
2000,9,2,1,20,-3.64,01,0.00,06,0.60,01,-2.93,01,33.04,01,14.73,01
2000,9,2,1,25,-4.07,01,0.00,06,0.24,01,-3.47,01,32.77,01,14.88,01
2000,9,2,1,30,-4.14,01,0.00,06,0.44,01,-3.85,01,32.86,01,14.94,01
2000,9,2,1,35,-3.75,01,0.00,06,1.30,01,-3.61,01,33.09,01,15.09,01
2000,9,2,1,40,-4.16,01,0.00,06,0.67,01,-3.95,01,33.02,01,15.12,01
2000,9,2,1,45,-3.79,01,0.00,06,1.03,01,-3.58,01,33.07,01,15.30,01
2000,9,2,1,50,-3.43,01,0.00,06,1.45,01,-3.38,01,33.22,01,15.77,01
2000,9,2,1,55,-3.77,01,0.00,06,1.13,01,-3.51,01,33.42,01,15.84,01
2000,9,2,2,0,-4.26,01,0.00,06,0.63,01,-4.22,01,33.33,01,15.98,01
2000,9,2,2,5,-5.37,01,0.00,06,-0.43,01,-4.97,01,32.94,01,16.64,01
2000,9,2,2,10,-5.03,01,0.00,06,-0.32,01,-4.68,01,32.71,01,17.56,01
2000,9,2,2,15,-5.01,01,0.00,06,-0.39,01,-4.75,01,32.65,01,18.08,01
2000,9,2,2,20,-5.29,01,0.00,06,-0.40,01,-4.90,01,32.49,01,18.55,01
2000,9,2,2,25,-4.90,01,0.00,06,-0.13,01,-4.68,01,32.49,01,18.89,01
2000,9,2,2,30,-4.51,01,0.00,06,0.13,01,-4.42,01,32.54,01,19.10,01
2000,9,2,2,35,-4.34,01,0.00,06,0.41,01,-3.89,01,32.64,01,19.16,01
2000,9,2,2,40,-5.65,01,0.00,06,-0.84,01,-4.91,01,32.16,01,18.75,01
2000,9,2,2,45,-5.69,01,0.00,06,-0.19,01,-5.01,01,32.40,01,18.59,01
2000,9,2,2,50,-5.49,01,0.00,06,-0.22,01,-4.79,01,32.86,01,18.33,01
2000,9,2,2,55,-5.42,01,0.00,06,0.48,01,-4.82,01,32.95,01,18.72,01
2000,9,2,3,0,-4.26,01,0.00,06,1.44,01,-3.87,01,33.18,01,19.02,01
2000,9,2,3,5,-4.40,01,0.00,06,1.49,01,-3.88,01,33.24,01,19.04,01
2000,9,2,3,10,-5.50,01,0.00,06,0.64,01,-4.81,01,32.90,01,19.25,01
2000,9,2,3,15,-4.49,01,0.00,06,1.49,01,-4.08,01,32.99,01,19.75,01
2000,9,2,3,20,-3.86,01,0.00,06,1.32,01,-3.69,01,33.06,01,19.69,01
2000,9,2,3,25,-3.44,01,0.00,06,1.93,01,-3.06,01,33.25,01,20.31,01
2000,9,2,3,30,-3.03,01,0.00,06,1.91,01,-2.36,01,33.58,01,19.99,01
2000,9,2,3,35,-3.44,01,0.00,06,1.29,01,-2.86,01,33.49,01,20.39,01
2000,9,2,3,40,-3.13,01,0.00,06,1.52,01,-2.64,01,33.78,01,20.35,01
2000,9,2,3,45,-3.98,01,0.00,06,0.72,01,-3.49,01,33.50,01,20.98,01
2000,9,2,3,50,-4.76,01,0.00,06,-0.06,01,-4.39,01,33.23,01,21.36,01
2000,9,2,3,55,-4.94,01,0.00,06,-0.68,01,-4.50,01,33.18,01,21.29,01
2000,9,2,4,0,-6.46,01,0.00,06,-0.68,01,-5.52,01,33.02,01,21.19,01
2000,9,2,4,5,-6.17,01,0.00,06,-0.77,01,-5.48,01,32.88,01,20.88,01
2000,9,2,4,10,-3.90,01,0.00,06,0.20,01,-3.58,01,32.90,01,20.64,01
2000,9,2,4,15,-4.14,01,0.00,06,0.06,01,-3.76,01,32.79,01,20.78,01
2000,9,2,4,20,-2.95,01,0.00,06,0.74,01,-2.79,01,32.86,01,20.63,01
2000,9,2,4,25,-3.07,01,0.00,06,0.54,01,-3.02,01,32.85,01,20.60,01
2000,9,2,4,30,-3.50,01,0.00,06,0.25,01,-3.46,01,32.77,01,20.62,01
2000,9,2,4,35,-3.97,01,0.00,06,-0.01,01,-3.99,01,32.69,01,20.73,01
2000,9,2,4,40,-2.81,01,0.00,06,0.68,01,-2.85,01,32.77,01,20.55,01
2000,9,2,4,45,-3.33,01,0.00,06,0.32,01,-3.33,01,32.73,01,20.45,01
2000,9,2,4,50,-3.03,01,0.00,06,0.27,01,-3.13,01,32.67,01,20.42,01
2000,9,2,4,55,-3.49,01,0.00,06,-0.02,01,-3.51,01,32.61,01,20.33,01
2000,9,2,5,0,-3.54,01,0.00,06,-0.32,01,-3.53,01,32.46,01,20.69,01
2000,9,2,5,5,-3.77,01,0.00,06,-0.51,01,-3.55,01,32.30,01,21.07,01